Location: Dehesa de la Cepeda
(40.6574°N, 4.3013°W)
Time: 01:10:24
(UTC+00:00)

Courier 1B - Pass Details

Date: 03 August 2021
Orbit: 963 x 1209 km, 28.3° (Epoch: 17 September)

Event Time Altitude Azimuth Distance (km) Brightness Sun altitude
Rises 20:36:05 0° 253° (WSW) 4,107 11.3 -11.7°
Reaches altitude 10° 20:39:17 10° 244° (WSW) 3,138 10.5 -12.2°
Maximum altitude 20:46:00 32° 185° (S) 1,910 8.8 -13.2°
Enters shadow 20:50:30 18° 136° (SE) 2,508 9.0 -13.9°
Drops below altitude 10° 20:52:33 10° 125° (SE) 3,048 - -14.2°
Sets 20:55:36 0° 116° (ESE) 3,974 - -14.7°
